Weather History for KAUW - November, 2012

Change the Weather History Date:

Monday, November 5, 2012

  Actual Average Record
Temperature  
Mean Temperature 29 °F 38 °F  
Max Temperature 38 °F 46 °F 71 °F (1975)
Min Temperature 20 °F 30 °F 2 °F (1951)
Degree Days  
Heating Degree Days 36 27  
Month to date heating degree days 156 131  
Since 1 July heating degree days 1015 1015  
Cooling Degree Days 0 0  
Month to date cooling degree days 0 0  
Year to date cooling degree days 725 407  
Moisture  
Dew Point 23 °F    
Average Humidity 76    
Maximum Humidity 92    
Minimum Humidity 59    
Precipitation  
Precipitation 0.00 in 0.07 in 1.62 in (1956)
Month to date precipitation T 0.36  
Year to date precipitation 26.58 29.41  
Snow  
Snow 0.00 in 0.20 in 4.70 in (1959)
Month to date snowfall 0.0 0.6  
Since 1 July snowfall T 2.0  
Snow Depth 0.00 in    
Sea Level Pressure  
Sea Level Pressure 30.23 in    
Wind  
Wind Speed 3 mph (East)    
Max Wind Speed 8 mph    
Max Gust Speed 13 mph    
Visibility 10 miles    
Events      
T = Trace of Precipitation, MM = Missing Value Source: NWS Daily Summary

Daily Weather History Graph

Daily Weather History Graph

Search for Another Location

Airport or City:

Trip Planner

Search our weather history database for the weather conditions in past years. The results will help you decide how hot, cold, wet, or windy it might be!

Date:

Astronomy

Nov. 05, 2012 Rise Set
Actual Time 6:42 AM CST 4:40 PM CST
Civil Twilight 6:12 AM CST 5:11 PM CST
Nautical Twilight 5:37 AM CST 5:46 PM CST
Astronomical Twilight 5:02 AM CST 6:20 PM CST
Moon 10:18 PM CST (11/5) 12:02 PM CST (11/5)
Length of Visible Light 10h 59m
Length of Day
9h 57m
Waning Gibbous, 62% of the Moon is Illuminated
Nov 5
Waning Gibbous
Nov 6
Last Quarter
Nov 13
New
Nov 20
First Quarter
Nov 28
Full

Hourly Weather History & Observations

Time (CST) Temp. Windchill Dew Point Humidity Pressure Visibility Wind Dir Wind Speed Gust Speed Precip Events Conditions
12:54 AM 24.1 °F - 21.0 °F 88% 30.27 in 10.0 mi Calm Calm - N/A   Clear
1:54 AM 24.1 °F - 21.0 °F 88% 30.27 in 9.0 mi Calm Calm - N/A   Clear
2:54 AM 24.1 °F - 21.0 °F 88% 30.27 in 10.0 mi Calm Calm - N/A   Clear
3:54 AM 23.0 °F - 19.9 °F 88% 30.27 in 10.0 mi Calm Calm - N/A   Clear
4:54 AM 21.9 °F - 19.0 °F 89% 30.27 in 10.0 mi Calm Calm - N/A   Clear
5:54 AM 21.9 °F - 19.0 °F 89% 30.28 in 10.0 mi Calm Calm - N/A   Clear
6:54 AM 19.9 °F - 18.0 °F 92% 30.29 in 8.0 mi Calm Calm - N/A   Clear
7:54 AM 26.1 °F - 23.0 °F 88% 30.29 in 9.0 mi Calm Calm - N/A   Clear
8:54 AM 28.9 °F 23.9 °F 24.1 °F 82% 30.29 in 10.0 mi East 4.6 mph - N/A   Clear
9:54 AM 34.0 °F 28.0 °F 25.0 °F 70% 30.29 in 10.0 mi East 6.9 mph - N/A   Clear
10:18 AM 35.6 °F 30.7 °F 24.8 °F 65% 30.23 in 10.0 mi NE 5.8 mph - N/A   Mostly Cloudy
10:54 AM 37.0 °F 31.0 °F 25.0 °F 62% 30.27 in 10.0 mi ESE 8.1 mph - N/A   Mostly Cloudy
11:03 AM 35.6 °F 30.7 °F 24.8 °F 65% 30.21 in 10.0 mi SE 5.8 mph - N/A   Scattered Clouds
11:11 AM 35.6 °F 31.7 °F 24.8 °F 65% 30.21 in 10.0 mi SE 4.6 mph - N/A   Mostly Cloudy
11:54 AM 36.0 °F - 24.1 °F 62% 30.26 in 10.0 mi Calm Calm - N/A   Overcast
12:54 PM 37.0 °F 33.3 °F 25.0 °F 62% 30.24 in 10.0 mi NE 4.6 mph - N/A   Overcast
1:54 PM 37.0 °F 33.3 °F 25.0 °F 62% 30.22 in 10.0 mi Variable 4.6 mph - N/A   Overcast
2:54 PM 37.0 °F 34.5 °F 25.0 °F 62% 30.20 in 10.0 mi ENE 3.5 mph - N/A   Partly Cloudy
3:54 PM 37.0 °F - 24.1 °F 59% 30.20 in 10.0 mi Calm Calm - N/A   Clear
4:54 PM 33.1 °F 28.7 °F 23.0 °F 66% 30.19 in 10.0 mi East 4.6 mph - N/A   Clear
5:54 PM 30.9 °F 26.2 °F 23.0 °F 72% 30.19 in 10.0 mi East 4.6 mph - N/A   Clear
6:54 PM 28.9 °F 25.2 °F 21.9 °F 75% 30.19 in 10.0 mi East 3.5 mph - N/A   Clear
7:54 PM 28.0 °F - 21.9 °F 78% 30.17 in 10.0 mi Calm Calm - N/A   Clear
8:54 PM 28.0 °F 24.2 °F 21.9 °F 78% 30.15 in 10.0 mi ESE 3.5 mph - N/A   Clear
9:54 PM 27.0 °F 23.0 °F 21.9 °F 81% 30.12 in 10.0 mi East 3.5 mph - N/A   Clear
10:54 PM 26.1 °F 20.5 °F 21.0 °F 81% 30.10 in 10.0 mi East 4.6 mph - N/A   Clear